QFA4359 NWWW-YSSY

Flight info

Callsign QFA4359
Flight time N/A
Altitude 38000
Route POXAK3E POXAK B580 MISLY DCT RIKNI N774 MARLN
Aircraft A35K/H-SDE2E3GHIJ3J4J5LM1ORWXY/LB1D1

Departure

Time N/A
Airport La Tontouta International Airport (NWWW)

Arrival

Time 2026-05-05 00:04
Airport Sydney Kingsford Smith International Airport (YSSY)
Time Latitude Longitude Altitude Speed Heading
2026-05-04 23:04 -30.64807 156.13118 38127 ft 422 kts 236°
2026-05-04 23:05 -30.68683 156.07997 38125 ft 421 kts 237°
2026-05-04 23:05 -30.72548 156.02881 38124 ft 421 kts 237°
2026-05-04 23:06 -30.76414 155.97757 38128 ft 421 kts 237°
2026-05-04 23:06 -30.80275 155.92636 38131 ft 421 kts 237°
2026-05-04 23:07 -30.84417 155.87735 38130 ft 430 kts 231°
2026-05-04 23:07 -30.88964 155.83198 38126 ft 432 kts 229°
2026-05-04 23:08 -30.93582 155.78715 38124 ft 432 kts 229°
2026-05-04 23:08 -30.98198 155.74233 38124 ft 432 kts 229°
2026-05-04 23:09 -31.02802 155.69738 38126 ft 432 kts 229°
2026-05-04 23:09 -31.07395 155.65238 38127 ft 431 kts 229°
2026-05-04 23:10 -31.11990 155.60728 38131 ft 431 kts 230°
2026-05-04 23:10 -31.16585 155.56210 38129 ft 432 kts 230°
2026-05-04 23:11 -31.21188 155.51682 38127 ft 433 kts 230°
2026-05-04 23:11 -31.25793 155.47147 38130 ft 433 kts 230°
2026-05-04 23:12 -31.30393 155.42612 38127 ft 432 kts 230°
2026-05-04 23:12 -31.34989 155.38073 38127 ft 432 kts 230°
2026-05-04 23:13 -31.39580 155.33532 38127 ft 432 kts 230°
2026-05-04 23:13 -31.44174 155.28983 38127 ft 432 kts 230°
2026-05-04 23:14 -31.48759 155.24437 38127 ft 431 kts 230°
2026-05-04 23:14 -31.53335 155.19894 38124 ft 431 kts 230°
2026-05-04 23:15 -31.57907 155.15347 38126 ft 431 kts 230°
2026-05-04 23:15 -31.62475 155.10799 38127 ft 431 kts 230°
2026-05-04 23:16 -31.67039 155.06249 38128 ft 431 kts 231°
2026-05-04 23:16 -31.71602 155.01695 38124 ft 430 kts 231°
2026-05-04 23:17 -31.76161 154.97137 38124 ft 430 kts 231°
2026-05-04 23:17 -31.80727 154.92565 38123 ft 431 kts 231°
2026-05-04 23:18 -31.85292 154.87990 38125 ft 431 kts 231°
2026-05-04 23:18 -31.89859 154.83407 38123 ft 431 kts 231°
2026-05-04 23:19 -31.94422 154.78821 38124 ft 432 kts 231°
2026-05-04 23:19 -31.98990 154.74225 38125 ft 432 kts 231°
2026-05-04 23:20 -32.03522 154.69658 38121 ft 432 kts 231°
2026-05-04 23:20 -32.08085 154.65054 38146 ft 432 kts 231°
2026-05-04 23:21 -32.12641 154.60450 38121 ft 431 kts 231°
2026-05-04 23:21 -32.17198 154.55839 38121 ft 431 kts 231°
2026-05-04 23:22 -32.21748 154.51228 38122 ft 431 kts 231°
2026-05-04 23:22 -32.26300 154.46610 38122 ft 431 kts 231°
2026-05-04 23:23 -32.30852 154.41984 38124 ft 432 kts 231°
2026-05-04 23:23 -32.35063 154.37701 38120 ft 432 kts 231°
2026-05-04 23:24 -32.39607 154.33071 38119 ft 434 kts 232°
2026-05-04 23:24 -32.44189 154.28395 38122 ft 435 kts 231°
2026-05-04 23:25 -32.48769 154.23718 38139 ft 436 kts 232°
2026-05-04 23:25 -32.53367 154.19015 38127 ft 437 kts 232°
2026-05-04 23:26 -32.57972 154.14298 38115 ft 438 kts 232°
2026-05-04 23:26 -32.62583 154.09570 38116 ft 438 kts 232°
2026-05-04 23:27 -32.67188 154.04840 38118 ft 438 kts 232°
2026-05-04 23:27 -32.71797 154.00098 38114 ft 438 kts 231°
2026-05-04 23:28 -32.76407 153.95349 38111 ft 439 kts 231°
2026-05-04 23:28 -32.81018 153.90592 38109 ft 439 kts 231°
2026-05-04 23:29 -32.85633 153.85825 38109 ft 439 kts 231°
2026-05-04 23:29 -32.90242 153.81057 38111 ft 439 kts 231°
2026-05-04 23:30 -32.94845 153.76288 38115 ft 439 kts 231°
2026-05-04 23:30 -32.99446 153.71514 38107 ft 439 kts 231°
2026-05-04 23:31 -33.04054 153.66726 38121 ft 439 kts 231°
2026-05-04 23:31 -33.08661 153.61931 38109 ft 440 kts 231°
2026-05-04 23:32 -33.13266 153.57133 38107 ft 440 kts 231°
2026-05-04 23:32 -33.17872 153.52327 38105 ft 440 kts 231°
2026-05-04 23:33 -33.22476 153.47514 38107 ft 440 kts 231°
2026-05-04 23:33 -33.27079 153.42695 38157 ft 441 kts 230°
2026-05-04 23:34 -33.31747 153.37791 38108 ft 451 kts 230°
2026-05-04 23:34 -33.36478 153.32825 38111 ft 453 kts 230°
2026-05-04 23:35 -33.41222 153.27847 38113 ft 453 kts 230°
2026-05-04 23:35 -33.45960 153.22864 38140 ft 453 kts 229°
2026-05-04 23:36 -33.50701 153.17863 38116 ft 455 kts 229°
2026-05-04 23:36 -33.55461 153.12834 38114 ft 456 kts 229°
2026-05-04 23:37 -33.60215 153.07808 38109 ft 455 kts 229°
2026-05-04 23:37 -33.64963 153.02780 38135 ft 455 kts 229°
2026-05-04 23:38 -33.69721 152.97729 38110 ft 457 kts 229°
2026-05-04 23:38 -33.74444 152.92712 37904 ft 455 kts 229°
2026-05-04 23:39 -33.76817 152.90188 37651 ft 457 kts 229°
2026-05-04 23:39 -33.79200 152.87650 37381 ft 458 kts 229°
2026-05-04 23:39 -33.81582 152.85111 37082 ft 457 kts 229°
2026-05-04 23:39 -33.83948 152.82593 36473 ft 453 kts 229°
2026-05-04 23:40 -33.86304 152.80084 35695 ft 452 kts 230°
2026-05-04 23:40 -33.88651 152.77578 34931 ft 452 kts 230°
2026-05-04 23:40 -33.91009 152.75056 34056 ft 454 kts 230°
2026-05-04 23:40 -33.93369 152.72527 33076 ft 455 kts 230°
2026-05-04 23:41 -33.95737 152.69990 32125 ft 456 kts 230°
2026-05-04 23:41 -33.98106 152.67450 31164 ft 457 kts 231°
2026-05-04 23:41 -34.00482 152.64901 30171 ft 459 kts 231°
2026-05-04 23:41 -34.02863 152.62327 29019 ft 459 kts 231°
2026-05-04 23:42 -34.04942 152.59499 28193 ft 442 kts 242°
2026-05-04 23:42 -34.06453 152.56360 27484 ft 424 kts 252°
2026-05-04 23:42 -34.07323 152.53043 26831 ft 408 kts 264°
2026-05-04 23:42 -34.07545 152.49696 26171 ft 395 kts 275°
2026-05-04 23:43 -34.07322 152.46430 25543 ft 389 kts 279°
2026-05-04 23:43 -34.07008 152.43196 24911 ft 388 kts 279°
2026-05-04 23:43 -34.06690 152.39972 24279 ft 387 kts 279°
2026-05-04 23:43 -34.06377 152.36757 23631 ft 386 kts 279°
2026-05-04 23:44 -34.06068 152.33550 22917 ft 384 kts 279°
2026-05-04 23:44 -34.05763 152.30365 22280 ft 381 kts 279°
2026-05-04 23:44 -34.05460 152.27201 21635 ft 378 kts 279°
2026-05-04 23:44 -34.05159 152.24063 20988 ft 375 kts 279°
2026-05-04 23:45 -34.04860 152.20950 20363 ft 372 kts 279°
2026-05-04 23:45 -34.04563 152.17864 19720 ft 369 kts 279°
2026-05-04 23:45 -34.04268 152.14802 19081 ft 367 kts 279°
2026-05-04 23:45 -34.03973 152.11759 18442 ft 364 kts 279°
2026-05-04 23:46 -34.03681 152.08739 17677 ft 361 kts 278°
2026-05-04 23:46 -34.03390 152.05745 16950 ft 358 kts 278°
2026-05-04 23:46 -34.03096 152.02775 16238 ft 355 kts 279°
2026-05-04 23:46 -34.02799 151.99834 15518 ft 352 kts 279°
2026-05-04 23:47 -34.02505 151.96918 14788 ft 349 kts 278°
2026-05-04 23:47 -34.02212 151.94027 14067 ft 346 kts 278°
2026-05-04 23:47 -34.01921 151.91158 13297 ft 343 kts 278°
2026-05-04 23:47 -34.01634 151.88320 12561 ft 340 kts 278°
2026-05-04 23:48 -34.01349 151.85509 11834 ft 336 kts 278°
2026-05-04 23:48 -34.01066 151.82726 11124 ft 333 kts 278°
2026-05-04 23:48 -34.00788 151.80000 10802 ft 318 kts 278°
2026-05-04 23:48 -34.00614 151.78283 10716 ft 305 kts 278°
2026-05-04 23:49 -34.00364 151.75824 10594 ft 286 kts 278°
2026-05-04 23:49 -34.00128 151.73513 10466 ft 270 kts 278°
2026-05-04 23:49 -33.99904 151.71334 10340 ft 256 kts 278°
2026-05-04 23:49 -33.99688 151.69249 10214 ft 245 kts 278°
2026-05-04 23:50 -33.99479 151.67235 10106 ft 242 kts 278°
2026-05-04 23:50 -33.99268 151.65215 9971 ft 243 kts 278°
2026-05-04 23:50 -33.99057 151.63182 9868 ft 250 kts 278°
2026-05-04 23:50 -33.98839 151.61100 9617 ft 255 kts 278°
2026-05-04 23:51 -33.98614 151.58939 9333 ft 261 kts 278°
2026-05-04 23:51 -33.98389 151.56768 8930 ft 261 kts 278°
2026-05-04 23:51 -33.98159 151.54570 8911 ft 265 kts 277°
2026-05-04 23:51 -33.97930 151.52367 8923 ft 264 kts 277°
2026-05-04 23:52 -33.97702 151.50171 8925 ft 264 kts 277°
2026-05-04 23:52 -33.97474 151.47973 8924 ft 265 kts 277°
2026-05-04 23:52 -33.97243 151.45764 8925 ft 266 kts 277°
2026-05-04 23:52 -33.97011 151.43560 8926 ft 265 kts 277°
2026-05-04 23:53 -33.96860 151.41350 8924 ft 265 kts 269°
2026-05-04 23:53 -33.97255 151.39189 8920 ft 268 kts 247°
2026-05-04 23:53 -33.98393 151.37401 8923 ft 274 kts 223°
2026-05-04 23:53 -34.00043 151.36213 8929 ft 279 kts 209°
2026-05-04 23:54 -34.01847 151.35320 8929 ft 282 kts 204°
2026-05-04 23:54 -34.03764 151.34776 8924 ft 287 kts 188°
2026-05-04 23:54 -34.05773 151.34909 8928 ft 291 kts 176°
2026-05-04 23:54 -34.07778 151.35322 8827 ft 293 kts 172°
2026-05-04 23:55 -34.09762 151.35854 8497 ft 289 kts 170°
2026-05-04 23:55 -34.11687 151.36423 8162 ft 281 kts 170°
2026-05-04 23:55 -34.15394 151.37518 7509 ft 267 kts 170°
2026-05-04 23:56 -34.17199 151.37848 7218 ft 257 kts 183°
2026-05-04 23:56 -34.18903 151.37500 6880 ft 244 kts 208°
2026-05-04 23:56 -34.20209 151.36295 6545 ft 234 kts 230°
2026-05-04 23:56 -34.21203 151.34756 6188 ft 231 kts 235°
2026-05-04 23:57 -34.22128 151.33185 5835 ft 228 kts 235°
2026-05-04 23:57 -34.23021 151.31613 5479 ft 226 kts 236°
2026-05-04 23:57 -34.23872 151.30028 5085 ft 225 kts 240°
2026-05-04 23:57 -34.24222 151.28199 4661 ft 228 kts 270°
2026-05-04 23:58 -34.23890 151.26312 4246 ft 231 kts 282°
2026-05-04 23:58 -34.23300 151.24534 4002 ft 226 kts 301°
2026-05-04 23:58 -34.22126 151.23352 3981 ft 217 kts 329°
2026-05-04 23:58 -34.20733 151.22816 3971 ft 204 kts 344°
2026-05-04 23:59 -34.19349 151.22593 3986 ft 200 kts 349°
2026-05-04 23:59 -34.17963 151.22437 3988 ft 199 kts 349°
2026-05-04 23:59 -34.16583 151.22289 3990 ft 199 kts 350°
2026-05-04 23:59 -34.15197 151.22142 3991 ft 200 kts 349°
2026-05-05 00:00 -34.13817 151.21996 3992 ft 199 kts 349°
2026-05-05 00:00 -34.12904 151.21900 3901 ft 198 kts 350°
2026-05-05 00:00 -34.11098 151.21719 3574 ft 192 kts 349°
2026-05-05 00:00 -34.09774 151.21586 3307 ft 189 kts 348°
2026-05-05 00:01 -34.08488 151.21406 3043 ft 185 kts 345°
2026-05-05 00:01 -34.07229 151.21138 2758 ft 182 kts 340°
2026-05-05 00:01 -34.05999 151.20795 2439 ft 178 kts 338°
2026-05-05 00:01 -34.04849 151.20425 2185 ft 163 kts 337°
2026-05-05 00:02 -34.03802 151.20087 1968 ft 151 kts 338°
2026-05-05 00:02 -34.02799 151.19758 1709 ft 149 kts 338°
2026-05-05 00:02 -34.01812 151.19466 1436 ft 148 kts 341°
2026-05-05 00:02 -34.00819 151.19232 1163 ft 143 kts 343°
2026-05-05 00:03 -33.99852 151.19007 843 ft 141 kts 342°
2026-05-05 00:03 -33.98912 151.18724 548 ft 136 kts 341°
2026-05-05 00:03 -33.98010 151.18496 325 ft 128 kts 343°
2026-05-05 00:03 -33.97173 151.18269 170 ft 121 kts 342°
2026-05-05 00:04 -33.96353 151.18048 55 ft 121 kts 341°
2026-05-05 00:04 -33.95568 151.17842 35 ft 100 kts 347°
2026-05-05 00:04 -33.95043 151.17705 33 ft 54 kts 348°
2026-05-05 00:04 -33.94794 151.17640 35 ft 31 kts 348°
2026-05-05 00:05 -33.94584 151.17569 36 ft 31 kts 338°
2026-05-05 00:05 -33.94410 151.17444 36 ft 24 kts 320°
2026-05-05 00:05 -33.94310 151.17338 36 ft 19 kts 319°
2026-05-05 00:05 -33.94178 151.17278 34 ft 23 kts 347°
2026-05-05 00:06 -33.94048 151.17244 35 ft 13 kts 348°
2026-05-05 00:06 -33.93984 151.17185 35 ft 13 kts 284°
2026-05-05 00:06 -33.94007 151.17072 36 ft 16 kts 254°
2026-05-05 00:06 -33.94042 151.16923 36 ft 21 kts 254°
2026-05-05 00:07 -33.94103 151.16826 36 ft 9 kts 176°
2026-05-05 00:07 -33.94180 151.16852 35 ft 15 kts 166°
2026-05-05 00:07 -33.94306 151.16887 34 ft 20 kts 167°
2026-05-05 00:07 -33.94415 151.16941 36 ft 11 kts 133°
2026-05-05 00:08 -33.94472 151.16979 36 ft 8 kts 164°
2026-05-05 00:08 -33.94520 151.16995 36 ft 2 kts 164°
2026-05-05 00:08 -33.94525 151.16997 36 ft 0 kts 164°